KB7STN Weather Reports


time (UTC)temp
C
wind
direction
speed
KPH
gust
KPH
rain 1hr
cm
rain 24hr
cm
rain mn
cm
humidity
%
barometer
mb
20260902150520 21 236 1.6 12.9 0.00 0.00 0.00 43 1018.2
20260902150020 21 280 1.6 11.3 0.00 0.00 0.00 44 1018.2
20260902145520 20 168 0.0 0.0 0.00 0.00 0.00 46 1018.1
20260902145020 20 168 0.0 0.0 0.00 0.00 0.00 47 1018.1
20260902144520 20 168 1.6 8.0 0.00 0.00 0.00 47 1018.1
20260902144020 20 174 1.6 12.9 0.00 0.00 0.00 47 1017.9
20260902143520 20 236 0.0 4.8 0.00 0.00 0.00 49 1017.9
20260902143020 20 227 0.0 0.0 0.00 0.00 0.00 53 1017.9
20260902142520 20 227 0.0 4.8 0.00 0.00 0.00 53 1018.0
20260902142020 20 228 0.0 8.0 0.00 0.00 0.00 53 1018.0
20260902141520 20 232 0.0 0.0 0.00 0.00 0.00 52 1017.9
20260902141020 19 232 0.0 6.4 0.00 0.00 0.00 49 1018.0
20260902140520 18 232 0.0 0.0 0.00 0.00 0.00 51 1018.0
20260902140020 18 232 0.0 0.0 0.00 0.00 0.00 53 1018.1
20260902135520 17 232 0.0 3.2 0.00 0.00 0.00 54 1018.1
20260902135020 17 232 0.0 4.8 0.00 0.00 0.00 55 1018.0
20260902134520 16 232 0.0 0.0 0.00 0.00 0.00 56 1018.0
20260902134020 16 232 0.0 0.0 0.00 0.00 0.00 56 1018.0
20260902133520 16 232 0.0 0.0 0.00 0.00 0.00 58 1018.0
20260902133020 16 232 0.0 0.0 0.00 0.00 0.00 58 1018.0
20260902132520 16 232 0.0 0.0 0.00 0.00 0.00 60 1018.1
20260902132020 16 232 0.0 0.0 0.00 0.00 0.00 59 1018.1
20260902131521 16 232 0.0 0.0 0.00 0.00 0.00 59 1018.1
20260902131020 16 232 0.0 0.0 0.00 0.00 0.00 60 1018.1
20260902130520 16 232 0.0 0.0 0.00 0.00 0.00 61 1018.0
20260902130020 16 232 0.0 0.0 0.00 0.00 0.00 62 1018.0
20260902125520 16 232 0.0 0.0 0.00 0.00 0.00 62 1017.9
20260902125020 16 232 0.0 0.0 0.00 0.00 0.00 61 1018.0
20260902124520 16 232 0.0 0.0 0.00 0.00 0.00 60 1018.0
20260902124020 16 232 0.0 0.0 0.00 0.00 0.00 58 1017.9
20260902123520 17 232 0.0 0.0 0.00 0.00 0.00 58 1017.9
20260902123020 17 232 0.0 0.0 0.00 0.00 0.00 57 1018.0
20260902122520 17 232 0.0 0.0 0.00 0.00 0.00 55 1017.8
20260902122020 17 232 0.0 0.0 0.00 0.00 0.00 54 1017.8
20260902121520 17 232 0.0 0.0 0.00 0.00 0.00 54 1017.8
20260902121020 18 232 0.0 0.0 0.00 0.00 0.00 52 1017.8
20260902120520 18 232 0.0 0.0 0.00 0.00 0.00 52 1017.8
20260902120020 18 232 0.0 0.0 0.00 0.00 0.00 52 1017.9
20260902115520 18 232 0.0 0.0 0.00 0.00 0.00 52 1017.9
20260902115020 18 232 0.0 0.0 0.00 0.00 0.00 52 1017.8
20260902114520 18 232 0.0 0.0 0.00 0.00 0.00 51 1017.8
20260902114020 18 232 0.0 0.0 0.00 0.00 0.00 51 1017.8
20260902113520 18 232 0.0 0.0 0.00 0.00 0.00 51 1017.8
20260902113020 18 232 0.0 0.0 0.00 0.00 0.00 50 1017.8
20260902112520 18 232 0.0 0.0 0.00 0.00 0.00 50 1017.7
20260902112020 18 232 0.0 0.0 0.00 0.00 0.00 50 1017.8
20260902111520 18 232 0.0 0.0 0.00 0.00 0.00 50 1017.8
20260902111020 18 232 0.0 0.0 0.00 0.00 0.00 50 1017.8
20260902110520 18 232 0.0 0.0 0.00 0.00 0.00 50 1017.8
20260902110020 18 232 0.0 0.0 0.00 0.00 0.00 49 1017.7
20260902105520 18 232 0.0 0.0 0.00 0.00 0.00 49 1017.7
20260902105020 18 232 0.0 0.0 0.00 0.00 0.00 49 1017.6
20260902104520 18 232 0.0 0.0 0.00 0.00 0.00 50 1017.7
20260902104020 18 232 0.0 0.0 0.00 0.00 0.00 50 1017.7
20260902103522 18 232 0.0 0.0 0.00 0.00 0.00 50 1017.6
20260902103020 18 232 0.0 0.0 0.00 0.00 0.00 50 1017.7
20260902102520 18 232 0.0 0.0 0.00 0.00 0.00 51 1017.7
20260902102020 18 232 0.0 0.0 0.00 0.00 0.00 51 1017.7
20260902101520 18 232 0.0 1.6 0.00 0.00 0.00 51 1017.7
20260902101020 18 232 0.0 0.0 0.00 0.00 0.00 51 1017.8
20260902100520 18 232 0.0 0.0 0.00 0.00 0.00 51 1017.8
20260902100020 18 232 0.0 0.0 0.00 0.00 0.00 51 1017.8
20260902095520 18 232 0.0 3.2 0.00 0.00 0.00 51 1017.8
20260902095020 18 232 0.0 0.0 0.00 0.00 0.00 50 1017.9
20260902094520 18 232 0.0 1.6 0.00 0.00 0.00 50 1017.9
20260902094020 18 232 0.0 0.0 0.00 0.00 0.00 50 1017.9
20260902093520 18 232 0.0 0.0 0.00 0.00 0.00 49 1017.9
20260902093021 18 232 0.0 0.0 0.00 0.00 0.00 48 1017.9
20260902092520 18 232 0.0 0.0 0.00 0.00 0.00 47 1017.9
20260902092020 18 232 0.0 0.0 0.00 0.00 0.00 46 1018.0
20260902091520 18 232 0.0 0.0 0.00 0.00 0.00 46 1018.1
20260902091020 18 232 0.0 0.0 0.00 0.00 0.00 46 1018.1
20260902090520 18 232 0.0 0.0 0.00 0.00 0.00 46 1018.2
20260902090020 18 232 0.0 3.2 0.00 0.00 0.00 46 1018.2
20260902085520 18 232 0.0 0.0 0.00 0.00 0.00 46 1018.2
20260902085020 18 232 0.0 0.0 0.00 0.00 0.00 45 1018.2
20260902084520 19 232 0.0 1.6 0.00 0.00 0.00 45 1018.2
20260902084020 19 232 0.0 0.0 0.00 0.00 0.00 45 1018.2
20260902083520 19 232 0.0 0.0 0.00 0.00 0.00 44 1018.3
20260902083020 19 232 0.0 0.0 0.00 0.00 0.00 44 1018.1
20260902082521 19 232 0.0 0.0 0.00 0.00 0.00 44 1018.3
20260902082021 19 232 0.0 0.0 0.00 0.00 0.00 44 1018.3
20260902081521 19 232 0.0 3.2 0.00 0.00 0.00 44 1018.2
20260902081021 19 232 0.0 0.0 0.00 0.00 0.00 44 1018.2
20260902080521 19 232 0.0 0.0 0.00 0.00 0.00 45 1018.2
20260902080021 19 232 0.0 0.0 0.00 0.00 0.00 45 1018.3
20260902075520 18 232 0.0 0.0 0.00 0.00 0.00 45 1018.2
20260902075021 18 232 0.0 0.0 0.00 0.00 0.00 46 1018.3
20260902074521 18 232 0.0 0.0 0.00 0.00 0.00 46 1018.3
20260902074021 18 232 0.0 0.0 0.00 0.00 0.00 46 1018.2
20260902073521 18 232 0.0 0.0 0.00 0.00 0.00 46 1018.2
20260902073021 18 232 0.0 0.0 0.00 0.00 0.00 46 1018.2
20260902072521 18 232 0.0 0.0 0.00 0.00 0.00 46 1018.2
20260902072021 19 232 0.0 0.0 0.00 0.00 0.00 46 1018.1
20260902071521 19 232 0.0 0.0 0.00 0.00 0.00 46 1018.1
20260902071021 19 232 0.0 1.6 0.00 0.00 0.00 46 1018.0
20260902070521 19 232 0.0 0.0 0.00 0.00 0.00 45 1018.1
20260902070021 19 232 0.0 0.0 0.00 0.00 0.00 45 1018.1
20260902065521 19 232 0.0 3.2 0.00 0.00 0.00 44 1018.1
20260902065021 19 232 0.0 6.4 0.00 0.00 0.00 44 1018.2
20260902064521 19 234 0.0 0.0 0.00 0.00 0.00 43 1018.2
20260902064021 19 234 0.0 0.0 0.00 0.00 0.00 43 1018.1
20260902063521 20 234 0.0 0.0 0.00 0.00 0.00 43 1018.1
20260902063021 20 234 0.0 3.2 0.00 0.00 0.00 43 1018.1
20260902062521 20 232 0.0 0.0 0.00 0.00 0.00 44 1018.1
20260902062021 20 232 0.0 0.0 0.00 0.00 0.00 44 1018.1
20260902061521 20 232 0.0 0.0 0.00 0.00 0.00 46 1018.1
20260902061021 20 232 0.0 0.0 0.00 0.00 0.00 46 1018.2
20260902060521 20 232 0.0 0.0 0.00 0.00 0.00 46 1018.2
20260902060021 20 232 0.0 0.0 0.00 0.00 0.00 46 1018.2
20260902055521 20 232 0.0 0.0 0.00 0.00 0.00 47 1018.1
20260902055021 20 232 0.0 0.0 0.00 0.00 0.00 47 1018.1
20260902054521 20 232 0.0 0.0 0.00 0.00 0.00 45 1018.1
20260902054021 20 232 0.0 0.0 0.00 0.00 0.00 44 1018.1
20260902053521 20 232 0.0 0.0 0.00 0.00 0.00 44 1018.1
20260902053021 20 232 0.0 0.0 0.00 0.00 0.00 45 1018.2
20260902052521 20 232 0.0 1.6 0.00 0.00 0.00 46 1018.1
20260902052021 20 231 0.0 4.8 0.00 0.00 0.00 46 1018.2
20260902051521 20 225 0.0 0.0 0.00 0.00 0.00 47 1018.2
20260902051021 20 225 0.0 1.6 0.00 0.00 0.00 47 1018.2
20260902050521 20 225 0.0 4.8 0.00 0.00 0.00 48 1018.2
20260902050021 20 225 0.0 6.4 0.00 0.00 0.00 48 1018.3
20260902045521 21 219 0.0 0.0 0.00 0.00 0.00 48 1018.3
20260902045021 21 219 0.0 0.0 0.00 0.00 0.00 47 1018.4
20260902044521 21 219 0.0 0.0 0.00 0.00 0.00 47 1018.5
20260902044021 21 219 0.0 0.0 0.00 0.00 0.00 47 1018.4
20260902043521 21 219 0.0 4.8 0.00 0.00 0.00 47 1018.4
20260902043021 21 218 0.0 6.4 0.00 0.00 0.00 47 1018.4
20260902042521 21 217 0.0 0.0 0.00 0.00 0.00 47 1018.3
20260902042021 21 213 0.0 3.2 0.00 0.00 0.00 47 1018.3
20260902041521 21 212 0.0 1.6 0.00 0.00 0.00 47 1018.3
20260902041021 21 213 0.0 1.6 0.00 0.00 0.00 47 1018.3
20260902040521 21 213 0.0 1.6 0.00 0.00 0.00 47 1018.3
20260902040021 21 209 0.0 8.0 0.00 0.00 0.00 47 1018.4
20260902035521 21 211 0.0 6.4 0.00 0.00 0.00 47 1018.3
20260902035021 21 198 0.0 1.6 0.00 0.00 0.00 47 1018.2
20260902034521 21 196 0.0 0.0 0.00 0.00 0.00 47 1018.3
20260902034021 21 196 0.0 0.0 0.00 0.00 0.00 48 1018.2
20260902033521 20 196 0.0 0.0 0.00 0.00 0.00 48 1018.2
20260902033021 20 195 0.0 0.0 0.00 0.00 0.00 47 1018.3
20260902032521 20 194 0.0 0.0 0.00 0.00 0.00 48 1018.2
20260902032021 20 194 0.0 0.0 0.00 0.00 0.00 48 1018.1
20260902031521 20 194 0.0 0.0 0.00 0.00 0.00 50 1018.1
20260902031021 20 194 0.0 0.0 0.00 0.00 0.00 49 1018.0
20260902030521 21 194 0.0 0.0 0.00 0.00 0.00 49 1018.0
20260902030021 21 194 0.0 0.0 0.00 0.00 0.00 49 1017.9
20260902025521 21 194 0.0 0.0 0.00 0.00 0.00 47 1017.8
20260902025021 21 194 0.0 0.0 0.00 0.00 0.00 47 1017.8
20260902024521 21 194 0.0 0.0 0.00 0.00 0.00 47 1017.7
20260902024021 22 194 0.0 0.0 0.00 0.00 0.00 47 1017.6
20260902023521 22 194 0.0 0.0 0.00 0.00 0.00 47 1017.5
20260902023021 22 194 0.0 0.0 0.00 0.00 0.00 46 1017.5
20260902022521 22 194 0.0 0.0 0.00 0.00 0.00 45 1017.4
20260902022021 22 194 0.0 0.0 0.00 0.00 0.00 46 1017.4
20260902021521 22 194 0.0 0.0 0.00 0.00 0.00 44 1017.4
20260902021021 23 194 0.0 1.6 0.00 0.00 0.00 44 1017.4
20260902020521 23 194 0.0 0.0 0.00 0.00 0.00 44 1017.5
20260902020021 23 194 0.0 6.4 0.00 0.00 0.00 44 1017.4
20260902015521 23 171 0.0 0.0 0.00 0.00 0.00 44 1017.5
20260902015021 23 171 0.0 0.0 0.00 0.00 0.00 43 1017.5
20260902014521 23 171 0.0 0.0 0.00 0.00 0.00 43 1017.6
20260902014021 23 171 0.0 0.0 0.00 0.00 0.00 42 1017.5
20260902013522 23 171 0.0 1.6 0.00 0.00 0.00 41 1017.5
20260902013021 23 171 0.0 1.6 0.00 0.00 0.00 41 1017.5
20260902012521 23 170 0.0 0.0 0.00 0.00 0.00 41 1017.6
20260902012021 23 170 0.0 0.0 0.00 0.00 0.00 42 1017.6
20260902011521 23 170 0.0 6.4 0.00 0.00 0.00 41 1017.6
20260902011021 23 170 0.0 0.0 0.00 0.00 0.00 42 1017.5
20260902010521 23 170 0.0 0.0 0.00 0.00 0.00 42 1017.7
20260902010021 24 170 0.0 6.4 0.00 0.00 0.00 42 1017.7
20260902005521 24 190 0.0 4.8 0.00 0.00 0.00 43 1017.7
20260902005021 24 190 1.6 4.8 0.00 0.00 0.00 42 1017.8
20260902004521 24 199 1.6 8.0 0.00 0.00 0.00 42 1018.0
20260902004021 24 167 1.6 8.0 0.00 0.00 0.00 43 1018.1
20260902003521 24 179 3.2 16.1 0.00 0.00 0.00 43 1018.1
20260902003021 24 182 3.2 8.0 0.00 0.00 0.00 42 1018.1
20260902002521 24 173 4.8 8.0 0.00 0.00 0.00 43 1018.2
20260902002021 24 161 4.8 17.7 0.00 0.00 0.00 42 1018.2
20260902001521 24 168 3.2 11.3 0.00 0.00 0.00 42 1018.2
20260902001021 25 192 1.6 8.0 0.00 0.00 0.00 42 1018.3
20260902000521 25 207 1.6 6.4 0.00 0.00 0.00 42 1018.4
20260902000021 25 212 4.8 12.9 0.00 0.00 0.00 42 1018.3
20260901235521 25 182 3.2 16.1 0.00 0.00 0.00 42 1018.5
20260901235021 25 158 3.2 11.3 0.00 0.00 0.00 41 1018.5
20260901234521 25 202 3.2 9.7 0.00 0.00 0.00 40 1018.5
20260901234021 25 180 3.2 11.3 0.00 0.03 0.00 40 1018.5
20260901233521 26 188 3.2 3.2 0.00 0.03 0.00 40 1018.5
20260901233021 26 145 3.2 11.3 0.00 0.03 0.00 38 1018.6
20260901232521 26 161 4.8 9.7 0.00 0.03 0.00 38 1018.6
20260901232021 26 180 3.2 16.1 0.00 0.03 0.00 37 1018.7
20260901231521 26 241 3.2 9.7 0.00 0.03 0.00 32 1018.6
20260901231021 26 195 4.8 12.9 0.00 0.03 0.00 32 1019.0
20260901230521 26 193 4.8 11.3 0.00 0.03 0.00 32 1019.0
20260901230021 26 196 4.8 14.5 0.00 0.03 0.00 32 1019.1
20260901225521 26 230 3.2 8.0 0.00 0.03 0.00 38 1019.2
20260901225021 26 242 3.2 11.3 0.00 0.03 0.00 34 1019.1
20260901224521 26 225 3.2 9.7 0.00 0.03 0.00 35 1019.2
20260901224021 25 232 3.2 9.7 0.00 0.58 0.00 40 1019.4
20260901223521 26 158 4.8 16.1 0.00 0.58 0.00 43 1019.4
20260901223021 26 153 4.8 9.7 0.00 0.58 0.00 43 1019.6
20260901222521 26 146 4.8 9.7 0.00 0.58 0.00 42 1019.6
20260901222021 26 232 4.8 17.7 0.00 0.58 0.00 40 1019.6
20260901221521 26 174 4.8 11.3 0.00 0.58 0.00 39 1019.6
20260901221021 27 209 3.2 12.9 0.00 0.58 0.00 38 1019.8
20260901220521 27 219 3.2 9.7 0.00 0.58 0.00 34 1019.8
20260901220021 26 169 3.2 11.3 0.00 0.58 0.00 35 1019.9
20260901215522 26 225 3.2 9.7 0.00 0.58 0.00 35 1019.9
20260901215022 26 223 3.2 8.0 0.00 0.58 0.00 37 1020.0
20260901214522 26 217 4.8 14.5 0.00 0.58 0.00 38 1020.2
20260901214022 26 283 4.8 14.5 0.00 0.91 0.00 35 1020.1
20260901213522 26 250 4.8 11.3 0.00 0.91 0.00 35 1020.5
20260901213022 26 192 4.8 12.9 0.00 0.91 0.00 37 1020.3
20260901212522 26 201 4.8 14.5 0.00 0.91 0.00 38 1020.7
20260901212022 26 188 3.2 14.5 0.00 0.91 0.00 36 1020.7
20260901211522 26 205 1.6 11.3 0.00 0.91 0.00 37 1020.7
20260901211022 26 243 1.6 11.3 0.00 0.91 0.00 40 1020.9
20260901210522 25 198 3.2 17.7 0.00 0.91 0.00 39 1020.6
20260901210022 25 241 3.2 12.9 0.00 0.91 0.00 40 1021.0
20260901205522 25 202 1.6 14.5 0.00 0.91 0.00 44 1020.7
20260901205022 24 241 1.6 9.7 0.00 0.91 0.00 44 1020.9
20260901204522 25 241 1.6 4.8 0.00 0.91 0.00 43 1021.2
20260901204022 25 241 1.6 4.8 0.00 0.91 0.00 43 1021.1
20260901203522 25 248 3.2 11.3 0.00 0.91 0.00 44 1021.1
20260901203022 25 252 3.2 4.8 0.00 0.91 0.00 43 1021.2
20260901202522 25 274 4.8 12.9 0.00 0.91 0.00 44 1021.1
20260901202022 24 231 4.8 12.9 0.00 0.91 0.00 43 1021.4
20260901201522 24 216 3.2 8.0 0.00 0.91 0.00 45 1021.4
20260901201022 25 174 1.6 4.8 0.00 0.91 0.00 46 1021.4
20260901200522 25 177 3.2 4.8 0.00 0.91 0.00 47 1021.6
20260901200022 25 199 3.2 11.3 0.00 0.91 0.00 46 1021.5
20260901195522 24 163 3.2 11.3 0.00 0.91 0.00 48 1021.7
20260901195022 24 169 3.2 12.9 0.00 0.91 0.00 46 1021.7
20260901194524 24 217 3.2 8.0 0.00 0.91 0.00 47 1021.9
20260901194022 24 232 4.8 14.5 0.00 0.91 0.00 48 1021.9
20260901193522 24 152 4.8 12.9 0.00 0.91 0.00 47 1022.0
20260901193022 24 155 3.2 11.3 0.00 0.91 0.00 47 1022.0
20260901192522 24 154 3.2 11.3 0.00 0.91 0.00 50 1022.1
20260901192022 23 206 3.2 8.0 0.00 0.91 0.00 50 1022.4
20260901191522 23 198 3.2 8.0 0.00 0.91 0.00 51 1022.4
20260901191022 23 181 3.2 11.3 0.00 0.91 0.00 51 1022.4
20260901190522 22 178 4.8 9.7 0.00 0.91 0.00 51 1022.3
20260901190022 22 186 4.8 16.1 0.00 0.91 0.00 50 1022.5
20260901185522 22 161 1.6 12.9 0.00 0.91 0.00 51 1022.4
20260901185022 22 193 1.6 6.4 0.00 0.91 0.00 52 1022.5
20260901184522 22 194 4.8 9.7 0.00 0.91 0.00 52 1022.6
20260901184022 22 163 3.2 14.5 0.00 0.91 0.00 51 1022.6
20260901183522 22 206 3.2 8.0 0.00 0.91 0.00 52 1022.8
20260901183022 22 207 3.2 8.0 0.00 0.91 0.00 53 1022.8
20260901182522 21 205 3.2 6.4 0.00 0.91 0.00 53 1022.7
20260901182022 22 211 4.8 11.3 0.00 0.91 0.00 52 1022.9
20260901181522 22 220 4.8 11.3 0.00 0.91 0.00 52 1022.9
20260901181022 22 225 3.2 11.3 0.00 0.91 0.00 52 1023.0
20260901180522 22 202 3.2 8.0 0.00 0.91 0.00 53 1022.9
20260901180022 21 202 3.2 8.0 0.00 0.91 0.00 52 1022.9
20260901175522 21 201 3.2 6.4 0.00 0.91 0.00 52 1022.9
20260901175022 22 200 4.8 8.0 0.00 0.91 0.00 51 1023.1
20260901174522 22 204 4.8 11.3 0.00 0.91 0.00 51 1023.0
20260901174022 22 193 3.2 6.4 0.00 0.91 0.00 51 1022.9
20260901173522 22 203 3.2 8.0 0.00 0.91 0.00 53 1023.0
20260901173022 22 201 4.8 8.0 0.00 0.91 0.00 52 1022.9
20260901172522 22 201 3.2 8.0 0.00 0.91 0.00 52 1022.8
20260901172022 21 202 3.2 8.0 0.00 0.91 0.00 52 1022.8
20260901171522 22 194 3.2 9.7 0.00 0.91 0.00 51 1022.9
20260901171022 21 222 4.8 11.3 0.00 0.91 0.00 52 1022.9
20260901170522 21 250 3.2 9.7 0.00 0.91 0.00 53 1022.9
20260901170022 21 181 3.2 8.0 0.00 0.91 0.00 51 1022.8
20260901165522 21 188 3.2 9.7 0.00 0.91 0.00 53 1022.9
20260901165022 21 180 4.8 9.7 0.00 0.91 0.00 52 1022.9
20260901164522 21 184 4.8 8.0 0.00 0.91 0.00 53 1022.8
20260901164022 21 207 4.8 9.7 0.00 0.91 0.00 54 1022.7
20260901163522 21 172 4.8 9.7 0.00 0.91 0.00 54 1022.7
20260901163022 20 196 4.8 11.3 0.00 0.91 0.00 54 1022.6
20260901162522 20 211 6.4 11.3 0.00 0.91 0.00 54 1022.7
20260901162022 20 218 4.8 11.3 0.00 0.91 0.00 53 1022.6
20260901161522 20 238 4.8 12.9 0.00 0.91 0.00 54 1022.5
20260901161022 20 213 4.8 9.7 0.00 0.91 0.00 52 1022.5
20260901160522 20 205 6.4 11.3 0.00 0.91 0.00 53 1022.4
20260901160022 20 179 6.4 12.9 0.00 0.91 0.00 53 1022.5
20260901155522 20 209 6.4 9.7 0.00 0.91 0.00 53 1022.3
20260901155022 20 214 4.8 12.9 0.00 0.91 0.00 53 1022.4
20260901154522 20 202 4.8 11.3 0.00 0.91 0.00 54 1022.3
20260901154022 20 190 3.2 6.4 0.00 0.91 0.00 53 1022.4
20260901153522 20 185 3.2 8.0 0.00 0.91 0.00 54 1022.5
20260901153022 19 188 3.2 8.0 0.00 0.91 0.00 55 1022.6
20260901152522 19 203 4.8 6.4 0.00 0.91 0.00 57 1022.7
20260901152022 18 215 4.8 12.9 0.00 0.91 0.00 57 1022.8
20260901151522 18 211 3.2 9.7 0.00 0.91 0.00 58 1022.8
20260901151022 18 221 3.2 6.4 0.00 0.91 0.00 61 1022.9